| time (UTC) | temp F | wind direction | speed knots | gust knots | rain 1hr in | rain 24hr in | rain mn in | humidity % | barometer mb |
| 20260902133055 | 70 | 29 | 2.6 | 8.7 | 0.00 | 0.00 | 0.00 | 95 | 1016.5 |
| 20260902131549 | 70 | 340 | 2.6 | 7.0 | 0.00 | 0.00 | 0.00 | 96 | 1017.3 |
| 20260902130053 | 70 | 105 | 1.7 | 7.0 | 0.00 | 0.00 | 0.00 | 96 | 1016.1 |
| 20260902124553 | 70 | 95 | 2.6 | 7.0 | 0.00 | 0.00 | 0.00 | 96 | 1015.9 |
| 20260902123058 | 70 | 121 | 0.0 | 5.2 | 0.00 | 0.00 | 0.00 | 96 | 1016.2 |
| 20260902121549 | 70 | 103 | 3.5 | 7.0 | 0.00 | 0.00 | 0.00 | 96 | 1015.3 |
| 20260902120054 | 70 | 29 | 0.9 | 6.1 | 0.00 | 0.00 | 0.00 | 96 | 1015.8 |
| 20260902114548 | 70 | 157 | 5.2 | 10.4 | 0.00 | 0.00 | 0.00 | 96 | 1014.9 |
| 20260902113045 | 70 | 169 | 7.0 | 13.0 | 0.00 | 0.00 | 0.00 | 96 | 1014.5 |
| 20260902111553 | 70 | 184 | 7.0 | 13.9 | 0.00 | 0.00 | 0.00 | 96 | 1013.8 |
| 20260902110046 | 69 | 169 | 8.7 | 15.6 | 0.00 | 0.00 | 0.00 | 96 | 1014.0 |
| 20260902104545 | 69 | 172 | 7.8 | 12.2 | 0.00 | 0.00 | 0.00 | 96 | 1013.9 |
| 20260902103051 | 69 | 157 | 7.0 | 13.0 | 0.00 | 0.00 | 0.00 | 96 | 1013.9 |
| 20260902101548 | 69 | 164 | 7.8 | 13.0 | 0.00 | 0.00 | 0.00 | 96 | 1014.1 |
| 20260902100057 | 69 | 172 | 4.3 | 7.8 | 0.00 | 0.00 | 0.00 | 96 | 1014.3 |
| 20260902094557 | 69 | 161 | 3.5 | 7.8 | 0.00 | 0.00 | 0.00 | 96 | 1014.6 |
| 20260902093047 | 69 | 150 | 2.6 | 5.2 | 0.00 | 0.00 | 0.00 | 96 | 1014.7 |
| 20260902091557 | 68 | 0 | 0.0 | 0.0 | 0.00 | 0.00 | 0.00 | 96 | 1014.9 |
| 20260902090052 | 68 | 0 | 0.0 | 1.7 | 0.00 | 0.00 | 0.00 | 96 | 1015.1 |
| 20260902084603 | 68 | 149 | 1.7 | 5.2 | 0.00 | 0.00 | 0.00 | 96 | 1015.0 |
| 20260902083050 | 68 | 85 | 0.0 | 2.6 | 0.00 | 0.00 | 0.00 | 96 | 1015.3 |
| 20260902081554 | 67 | 0 | 0.0 | 2.6 | 0.00 | 0.00 | 0.00 | 96 | 1015.7 |
| 20260902080058 | 67 | 84 | 0.9 | 2.6 | 0.00 | 0.00 | 0.00 | 96 | 1015.4 |
| 20260902074608 | 67 | 84 | 0.9 | 2.6 | 0.00 | 0.00 | 0.00 | 96 | 1015.6 |
| 20260902073051 | 66 | 0 | 0.0 | 0.0 | 0.00 | 0.00 | 0.00 | 95 | 1015.7 |
| 20260902071551 | 67 | 0 | 0.0 | 0.0 | 0.00 | 0.00 | 0.00 | 95 | 1015.6 |
| 20260902064547 | 67 | 0 | 0.0 | 0.0 | 0.00 | 0.00 | 0.00 | 95 | 1015.5 |
| 20260902063112 | 66 | 0 | 0.0 | 0.0 | 0.00 | 0.00 | 0.00 | 95 | 1015.6 |
| 20260902061553 | 66 | 0 | 0.0 | 0.0 | 0.00 | 0.00 | 0.00 | 95 | 1015.5 |
| 20260902060106 | 67 | 0 | 0.0 | 0.0 | 0.00 | 0.00 | 0.00 | 95 | 1015.6 |
| 20260902054604 | 66 | 0 | 0.0 | 0.0 | 0.00 | 0.00 | 0.00 | 95 | 1015.6 |
| 20260902053055 | 67 | 0 | 0.0 | 0.0 | 0.00 | 0.00 | 0.00 | 95 | 1015.8 |
| 20260902051558 | 67 | 0 | 0.0 | 0.0 | 0.00 | 0.00 | 0.00 | 95 | 1015.7 |
| 20260902050050 | 67 | 0 | 0.0 | 0.0 | 0.00 | 0.00 | 0.00 | 95 | 1015.7 |
| 20260902044547 | 67 | 0 | 0.0 | 0.0 | 0.00 | 0.00 | 0.00 | 94 | 1015.9 |
| 20260902043105 | 67 | 0 | 0.0 | 0.0 | 0.00 | 0.00 | 0.00 | 94 | 1015.9 |
| 20260902041604 | 68 | 0 | 0.0 | 0.0 | 0.00 | 0.00 | 0.00 | 94 | 1015.7 |
| 20260902040050 | 68 | 0 | 0.0 | 0.0 | 0.00 | 0.00 | 0.00 | 94 | 1015.8 |
| 20260902034600 | 68 | 0 | 0.0 | 0.0 | 0.00 | 0.00 | 0.00 | 94 | 1015.6 |
| 20260902033051 | 68 | 0 | 0.0 | 2.6 | 0.00 | 0.00 | 0.00 | 94 | 1015.7 |
| 20260902031559 | 69 | 0 | 0.0 | 0.0 | 0.00 | 0.00 | 0.00 | 94 | 1015.6 |
| 20260902030051 | 69 | 0 | 0.9 | 2.6 | 0.00 | 0.00 | 0.00 | 94 | 1015.6 |
| 20260902024549 | 69 | 84 | 0.9 | 2.6 | 0.00 | 0.00 | 0.00 | 94 | 1015.7 |
| 20260902023054 | 69 | 84 | 0.9 | 2.6 | 0.00 | 0.00 | 0.00 | 93 | 1015.6 |
| 20260902021557 | 70 | 84 | 0.0 | 1.7 | 0.00 | 0.00 | 0.00 | 93 | 1015.8 |
| 20260902020053 | 70 | 0 | 0.0 | 1.7 | 0.00 | 0.00 | 0.00 | 93 | 1015.8 |
| 20260902014555 | 70 | 84 | 0.9 | 2.6 | 0.00 | 0.00 | 0.00 | 94 | 1015.9 |
| 20260902013054 | 71 | 84 | 0.9 | 5.2 | 0.00 | 0.00 | 0.00 | 94 | 1015.8 |
| 20260902011545 | 71 | 69 | 1.7 | 4.3 | 0.00 | 0.00 | 0.00 | 94 | 1016.0 |
| 20260902010055 | 71 | 61 | 2.6 | 5.2 | 0.00 | 0.00 | 0.00 | 93 | 1015.7 |
| 20260902004558 | 71 | 53 | 1.7 | 3.5 | 0.00 | 0.00 | 0.00 | 93 | 1015.5 |
| 20260902003126 | 71 | 44 | 1.7 | 5.2 | 0.00 | 0.00 | 0.00 | 93 | 1015.1 |
| 20260902001554 | 71 | 61 | 1.7 | 7.0 | 0.00 | 0.00 | 0.00 | 92 | 1014.8 |
| 20260902000100 | 71 | 41 | 1.7 | 5.2 | 0.00 | 0.00 | 0.00 | 91 | 1014.6 |
| 20260901234550 | 72 | 0 | 0.0 | 0.0 | 0.00 | 0.00 | 0.00 | 90 | 1014.7 |
| 20260901233050 | 72 | 0 | 0.0 | 0.0 | 0.00 | 0.00 | 0.00 | 90 | 1014.7 |
| 20260901231557 | 72 | 0 | 0.0 | 0.0 | 0.00 | 0.00 | 0.00 | 89 | 1014.7 |
| 20260901230054 | 73 | 0 | 0.0 | 1.7 | 0.00 | 0.00 | 0.00 | 89 | 1014.8 |
| 20260901224555 | 73 | 0 | 0.0 | 1.7 | 0.00 | 0.00 | 0.00 | 89 | 1014.8 |
| 20260901223050 | 73 | 70 | 0.0 | 1.7 | 0.00 | 0.00 | 0.00 | 89 | 1014.7 |
| 20260901221616 | 73 | 70 | 1.7 | 4.3 | 0.00 | 0.00 | 0.00 | 89 | 1014.6 |
| 20260901220057 | 73 | 44 | 1.7 | 5.2 | 0.00 | 0.00 | 0.00 | 89 | 1014.7 |
| 20260901214554 | 73 | 50 | 0.9 | 3.5 | 0.00 | 0.00 | 0.00 | 88 | 1014.7 |
| 20260901213054 | 74 | 47 | 0.0 | 2.6 | 0.00 | 0.00 | 0.00 | 88 | 1014.6 |
| 20260901211557 | 74 | 47 | 0.0 | 3.5 | 0.00 | 0.00 | 0.00 | 87 | 1014.6 |
| 20260901210129 | 74 | 50 | 1.7 | 3.5 | 0.00 | 0.00 | 0.00 | 86 | 1014.4 |
| 20260901204555 | 75 | 50 | 0.0 | 2.6 | 0.00 | 0.00 | 0.00 | 85 | 1014.6 |
| 20260901203051 | 76 | 0 | 0.0 | 1.7 | 0.00 | 0.00 | 0.00 | 83 | 1014.7 |
| 20260901201549 | 76 | 0 | 0.0 | 1.7 | 0.00 | 0.00 | 0.00 | 83 | 1014.7 |
| 20260901200057 | 76 | 50 | 0.9 | 2.6 | 0.00 | 0.00 | 0.00 | 82 | 1014.7 |
| 20260901194603 | 77 | 50 | 0.9 | 3.5 | 0.00 | 0.00 | 0.00 | 82 | 1014.7 |
| 20260901193106 | 77 | 51 | 1.7 | 5.2 | 0.00 | 0.00 | 0.00 | 81 | 1014.8 |
| 20260901191602 | 77 | 37 | 1.7 | 3.5 | 0.00 | 0.00 | 0.00 | 82 | 1014.7 |
| 20260901190120 | 78 | 23 | 2.6 | 4.3 | 0.00 | 0.00 | 0.00 | 80 | 1014.5 |
| 20260901184553 | 79 | 31 | 1.7 | 5.2 | 0.00 | 0.00 | 0.00 | 79 | 1014.6 |
| 20260901183053 | 79 | 55 | 5.2 | 7.8 | 0.00 | 0.00 | 0.00 | 78 | 1014.6 |
| 20260901181547 | 82 | 355 | 4.3 | 7.0 | 0.00 | 0.00 | 0.00 | 73 | 1014.5 |
| 20260901180057 | 85 | 24 | 1.7 | 7.8 | 0.00 | 0.00 | 0.00 | 72 | 1014.5 |
| 20260901174557 | 86 | 13 | 2.6 | 7.0 | 0.00 | 0.00 | 0.00 | 71 | 1014.3 |
| 20260901173051 | 85 | 0 | 0.9 | 3.5 | 0.00 | 0.00 | 0.00 | 74 | 1014.3 |
| 20260901171632 | 84 | 0 | 0.9 | 3.5 | 0.00 | 0.00 | 0.00 | 75 | 1014.1 |
| 20260901170105 | 84 | 350 | 1.7 | 4.3 | 0.00 | 0.00 | 0.00 | 74 | 1014.0 |
| 20260901164610 | 82 | 349 | 1.7 | 4.3 | 0.00 | 0.00 | 0.00 | 77 | 1014.0 |
| 20260901163108 | 81 | 345 | 1.7 | 4.3 | 0.00 | 0.00 | 0.00 | 80 | 1014.0 |
| 20260901161601 | 79 | 345 | 1.7 | 7.8 | 0.00 | 0.00 | 0.00 | 81 | 1013.8 |
| 20260901160057 | 79 | 350 | 5.2 | 8.7 | 0.00 | 0.00 | 0.00 | 82 | 1013.7 |
| 20260901154556 | 79 | 10 | 5.2 | 8.7 | 0.00 | 0.01 | 0.00 | 81 | 1013.7 |
| 20260901153058 | 78 | 346 | 2.6 | 7.0 | 0.00 | 0.01 | 0.00 | 84 | 1013.6 |
| 20260901151600 | 77 | 324 | 3.5 | 7.0 | 0.00 | 0.01 | 0.00 | 84 | 1013.4 |
| 20260901150058 | 77 | 325 | 4.3 | 5.2 | 0.00 | 0.01 | 0.00 | 84 | 1013.3 |
| 20260901144558 | 76 | 273 | 1.7 | 7.0 | 0.00 | 0.01 | 0.00 | 86 | 1013.1 |
| 20260901143058 | 76 | 244 | 2.6 | 7.8 | 0.00 | 0.01 | 0.00 | 87 | 1013.1 |
| 20260901141551 | 75 | 247 | 3.5 | 7.0 | 0.00 | 0.01 | 0.00 | 89 | 1013.1 |
| 20260901140059 | 74 | 211 | 3.5 | 6.1 | 0.00 | 0.01 | 0.00 | 90 | 1013.2 |
| 20260901134601 | 73 | 207 | 2.6 | 4.3 | 0.00 | 0.01 | 0.00 | 91 | 1013.2 |